Tracking 20721 objects as of 1-Jun-2020
HD Live streaming from Space Station
objects crossing your sky now

FENGYUN 1C DEB

Track FENGYUN 1C DEB now!
10-day predictions


NORAD ID: 30636
Int'l Code: 1999-025ANT
Perigee: 516.4 km
Apogee: 595.1 km
Inclination: 98.7 °
Period: 95.6 minutes
Semi major axis: 6926 km
RCS: 0.0143 m2 (small)
Launch date: May 10, 1999
Source: People's Republic of China (PRC)
Launch site: Taiyaun Space Center, China (TSC)

Note: This is SATELLITE DEBRIS
aabbcc
Your satellite tracking list
Your tracking list is empty




NASA's NSSDC Master Catalog

Two Line Element Set (TLE):
1 30636U 99025ANT 20152.17126551  .00005643  00000-0  37936-3 0  9990
2 30636  98.7266 219.3529 0056803 215.2889 144.4569 15.05937697714610
Source of the keplerian elements: AFSPC